This is the latest recevied weather packets stored in our database for station/object PD2BVG. If no packets are shown the sender has not sent any weather packets the latest 10 day(s).
| Time | Temp. | Humidity | Pressure | Rain* | Wind** | Luminosity | Snow |
|---|---|---|---|---|---|---|---|
| 1787814172 | 18.33° C | 92% | 1009.6 hPa | 0 mm | - | 102 W/m² | - |
| 1787814110 | 18.33° C | 92% | 1009.6 hPa | 0 mm | - | 102 W/m² | - |
| 1787814051 | 18.33° C | 92% | 1009.6 hPa | 0 mm | - | 107 W/m² | - |
| 1787813991 | 18.33° C | 93% | 1009.6 hPa | 0 mm | - | 120 W/m² | - |
| 1787813930 | 18.33° C | 93% | 1009.6 hPa | 0 mm | - | 127 W/m² | - |
| 1787813872 | 18.33° C | 93% | 1009.6 hPa | 0 mm | - | 127 W/m² | - |
| 1787813810 | 17.78° C | 93% | 1009.6 hPa | 0 mm | - | 120 W/m² | - |
| 1787813750 | 17.78° C | 93% | 1009.6 hPa | 0 mm | - | 114 W/m² | - |
| 1787813691 | 17.78° C | 93% | 1009.6 hPa | 0 mm | - | 111 W/m² | - |
| 1787813631 | 17.78° C | 93% | 1009.7 hPa | 0 mm | - | 107 W/m² | - |
| 1787813574 | 17.78° C | 93% | 1009.7 hPa | 0 mm | - | 97 W/m² | - |
| 1787813513 | 17.78° C | 93% | 1009.7 hPa | 0 mm | - | 95 W/m² | - |
| 1787813452 | 17.78° C | 93% | 1009.7 hPa | 0 mm | - | 93 W/m² | - |
| 1787813391 | 17.78° C | 93% | 1009.8 hPa | 0 mm | - | 88 W/m² | - |
| 1787813331 | 17.78° C | 93% | 1009.8 hPa | 0 mm | - | 88 W/m² | - |
| 1787813271 | 17.78° C | 93% | 1009.7 hPa | 0 mm | - | 88 W/m² | - |
| 1787813210 | 17.78° C | 93% | 1009.8 hPa | 0 mm | - | 90 W/m² | - |
| 1787813150 | 17.78° C | 93% | 1009.8 hPa | 0 mm | - | 81 W/m² | - |
| 1787813089 | 17.78° C | 93% | 1009.9 hPa | 0 mm | - | 78 W/m² | - |
| 1787813029 | 17.78° C | 93% | 1009.9 hPa | 0 mm | - | 76 W/m² | - |
| 1787812968 | 17.78° C | 93% | 1009.8 hPa | 0 mm | - | 76 W/m² | - |
| 1787812907 | 17.78° C | 93% | 1009.9 hPa | 0 mm | - | 74 W/m² | - |
| 1787812847 | 17.78° C | 93% | 1010 hPa | 0 mm | - | 70 W/m² | - |
| 1787812788 | 17.78° C | 93% | 1009.8 hPa | 0 mm | - | 69 W/m² | - |
| 1787812727 | 17.78° C | 93% | 1009.9 hPa | 0 mm | - | 65 W/m² | - |
* Rain latest hour (hover to see other rain measurements)
** Current wind speed in m/s (hover to see current wind gust speed)